sat.trackr.live / text

‹ back to catalog

KOREASAT 5A

NORAD 42984 · 2017-067A

PAYLOAD ACTIVE UNKNOWN

§ Identity

Operator
Country
SKOR
Launch date
2017-10-30
Launch site
AFETR
Launch vehicle
Mass (kg)
RCS (m²)

Purposes: comms

External: N2YO · Heavens-Above · Gunter

§ Orbital elements

Epoch: 2026-09-19T20:55:51.038400Z

Period
1,436.11 min
Inclination
0.0176°
Eccentricity
0.0000901
Mean motion
1.00270525 rev/d
Perigee alt
35,783.1 km
Apogee alt
35,790.7 km
Semi-major
42,165.1 km
B*
0.0000e+0
RAAN
144.5268°
Arg perigee
43.2215°
Mean anomaly
238.1393°
Rev number
3,247

§ Raw data

KOREASAT 5A1 42984U 17067A   26262.87211850  .00000000  00000+0  00000+0 0  99962 42984   0.0176 144.5268 0000901  43.2215 238.1393  1.00270525 32477

JSON: /api/v1/satellites/42984 · /tle

For live sub-satellite position, see the globe view (requires WebGL).

§ Visibility from observer

Set your observer location to see the next 7 days of passes ≥ 10°. The values pass through the URL so the page stays shareable.

No JS? Fill the form by hand. The geolocation button needs JavaScript.